Regional Weather Roundup
Issued by NWS Sterling, VA

Home | Current Version | Previous Version | Graphics & Text | Print | Product List | Glossary On
Versions: 1 2 3 4 5 6 7 8 9 10 11 12 13 14 15 16 17 18 19 20 21 22 23 24 25 26 27 28 29 30 31 32 33 34 35 36 37 38 39 40 41 42 43 44 45 46 47 48 49 50
000
ASUS41 KLWX 020710
RWRLWX

REGIONAL WEATHER ROUNDUP
NATIONAL WEATHER SERVICE BALTIMORE MD/WASHINGTON DC
200 AM EST FRI DEC 02 2016

Note: "FAIR" indicates few or no clouds below 12,000 feet
with no significant weather and/or obstructions to visibility.
 TC=TEMPERATURE CELSIUS

 * =Non NWS site. Station does not report precipitation (e.g. rain,
    snow, etc.), thunder, or fog.

DCZ001-MDZ009-015-VAZ040>042-051-053>054-020800-
WASHINGTON METRO

CITY           SKY/WX    TMP DP  RH WIND       PRES   REMARKS
WASHINGTON NAT CLOUDY    47  28  47 NW10      30.00R
DULLES         CLOUDY    44  27  51 NW9       30.00R
ANDREWS AFB    CLOUDY    45  27  48 NW15G23   29.98R
FT BELVOIR     CLOUDY    44  31  60 W5        30.00R
QUANTICO       CLOUDY    44  28  53 N6        30.02R
COLLEGE PARK*  CLOUDY    45  28  53 NW9       29.99R
LEESBURG*      CLOUDY    45  32  61 NW18      30.01R
MANASSAS*      CLOUDY    43  32  65 CALM      30.01R
GAITHERSBURG*  CLOUDY    43  25  49 NW10G21   30.02R

$$

MDZ006>007-011-014-020800-
BALTIMORE METRO

CITY           SKY/WX    TMP DP  RH WIND       PRES   REMARKS
BWI AIRPORT    CLOUDY    43  29  57 W8        29.98R
MD SCIENCE CTR   N/A     45  27  49 MISG      29.97S
ANNAPOLIS      CLOUDY    48  31  51 NW13G26   29.98R
FORT MEADE*    CLOUDY    43  30  61 W7        30.01R

$$

MDZ012-015-019>023-020800-
MARYLAND EASTERN SHORE

CITY           SKY/WX    TMP DP  RH WIND       PRES   REMARKS
OCEAN CITY     CLEAR     36  31  82 SW3       29.97R
SALISBURY      CLEAR     36  31  82 CALM      29.97R
EASTON*        CLOUDY    47  30  52 NW14      30.00S

$$

MDZ017>025-020800-
SOUTHERN MARYLAND

CITY           SKY/WX    TMP DP  RH WIND       PRES   REMARKS
PATUXENT RIVER CLEAR     38  29  70 W6        29.98R
ST INIGOES     CLEAR     35  32  88 CALM      29.98R
LEONARDTOWN*   CLEAR     36  30  80 CALM      29.99S

$$

MDZ003>005-020800-
NORTH CENTRAL MARYLAND

CITY           SKY/WX    TMP DP  RH WIND       PRES   REMARKS
FREDERICK*     CLOUDY    41  28  60 W5        30.02R
HAGERSTOWN APT CLOUDY    42  24  49 W8        29.96S
WESTMINSTER*   CLOUDY    39  27  60 W10       29.95R

$$

MDZ501>502-020800-
WESTERN MARYLAND

CITY           SKY/WX    TMP DP  RH WIND       PRES   REMARKS
OAKLAND*       CLOUDY    30  25  80 W10G20    29.91S WCI  21
CUMBERLAND*    NOT AVBL

$$

VAZ025>031-020800-
SHENANDOAH VALLEY

CITY           SKY/WX    TMP DP  RH WIND       PRES   REMARKS
WINCHESTER*    CLOUDY    41  27  56 W9        29.99S
FRONT ROYAL*   CLOUDY    43  30  61 W9G16     29.99R
LURAY*         CLOUDY    43  32  65 CALM      29.99R
NEW MARKET*    CLOUDY    43  26  50 CALM      29.98S
STAUNTON*      CLOUDY    38  30  72 CALM      30.01R
WAYNESBORO*    FAIR      38  26  62 CALM      29.99R

$$

WVZ021-048>050-054>055-020800-
EASTERN WEST VIRGINIA PANHANDLE

CITY           SKY/WX    TMP DP  RH WIND       PRES   REMARKS
MARTINSBURG    CLOUDY    43  24  47 W10       29.99R
PETERSBURG*    NOT AVBL

$$

VAZ036>039-050-020800-
CENTRAL FOOTHILLS

CITY           SKY/WX    TMP DP  RH WIND       PRES   REMARKS
CHARLOTTESVILL CLEAR     43  27  53 W3        29.99R
CULPEPER*      CLOUDY    35  33  92 CALM      30.02R
ORANGE*          N/A     34  32  93 CALM      30.01R
GORDONSVILLE*  FAIR      31  29  93 S3        30.00R
WARRENTON*     FAIR      37  29  75 CALM      30.00R

$$

VAZ055>057-020800-
NORTH AND CENTRAL PIEDMONT

CITY           SKY/WX    TMP DP  RH WIND       PRES   REMARKS
FREDERICKSBRG* PTCLDY    34  33  93 W5        30.00R
STAFFORD*      CLEAR     32  31  96 CALM      30.04R

$$

NCZ024-NYZ072-PAZ021-071-VAZ022-071-020800-
OTHER REGIONAL OBSERVATIONS

CITY           SKY/WX    TMP DP  RH WIND       PRES   REMARKS
NEW YORK CITY  PTCLDY    41  26  55 W12       29.88R
PHILADELPHIA   CLEAR     42  27  55 W12       29.94R
PITTSBURGH     CLOUDY    39  29  67 W10       29.96R
ROANOKE        MOCLDY    45  28  51 NW18G26   30.04R
RICHMOND       CLEAR     36  30  79 CALM      30.01R
RALEIGH        CLEAR     43  30  60 CALM      30.04R

$$

ANZ530>537-020800-
MARINE OBSERVATIONS

STATION/POSITION TIME  TEMP    WIND        PRES
                       AIR SEA DIR/SP/G
                 (UTC) (F)     (DEG/KT/KT) (MB)
THOMAS PT LIGHT  0700   46 51  320/ 14/ 16   N/A
BALT KEY BRIDGE  0648   45     280/ 17/ 23 1014.9R
COVE POINT       0648   44     330/  9/ 13 1015.6R
LEWISETTA        0648   45 54  280/  4/  5 1015.2R
SOLOMONS ISLAND  0648   44 53  290/  5/  7   N/A
PINEY POINT      0648          330/ 11/ 12   N/A

$$




USA.gov is the U.S. government's official web portal to all federal, state and local government web resources and services.